Location: Unspecified
(0.0000°N, 0.0000°E)
Time: 00:48:38
(UTC+00:00)

A-11 Canister half - Pass Details

Date: 11 February 2023
Orbit: 1526 x 1682 km, 47.3° (Epoch: 29 March)

Event Time Altitude Azimuth Distance (km) Brightness Sun altitude
Rises 01:43:08 0° 238° (WSW) 4,801 - -63.8°
Reaches altitude 10° 01:46:35 10° 246° (WSW) 3,791 - -63.1°
Maximum altitude 01:55:08 37° 310° (NW) 2,242 - -61.3°
Drops below altitude 10° 02:03:31 10° 15° (NNE) 3,694 - -59.5°
Sets 02:06:52 0° 23° (NNE) 4,666 - -58.7°
